Location: Bas Lanzent
(48.1360°N, 3.5871°W)
Time: 20:02:47
(UTC+00:00)

NOSS 3-1 (C) - Pass Details

Date: 18 February 2020
Orbit: 759 x 1449 km, 63.4° (Epoch: 26 March)

Event Time Altitude Azimuth Distance (km) Brightness Sun altitude
Exits shadow 03:54:03 55° 159° (SSE) 1,554 4.4 -34.1°
Drops below altitude 10° 04:00:33 10° 148° (SSE) 3,482 6.5 -33.0°
Sets 04:03:35 0° 147° (SSE) 4,498 7.1 -32.6°
